Temperature
13 13 13 13 13 13 12 12 12 12 12 12 12 12 12 12 12 11 11 11 11 11 10 10 10 10 10 10 10 10 10 10 10 10 9 9 10 10 10 10 10 10 11
13 13 13 12 12 12 12 12 12 12 12 12 12 12 11 11 11 11 11 10 10 10 10 9 9 9 9 9 9 9 9 9 9 9 9 9 9 9 9 9 9 10 10
12 12 12 12 12 12 12 11 11 11 11 11 11 11 11 11 11 10 10 10 10 9 9 9 9 9 9 8 8 9 9 8 9 8 8 8 8 8 8 9 9 9 9
12 12 12 12 11 11 11 11 11 11 11 11 11 11 10 10 10 10 9 9 9 9 9 8 8 8 8 8 8 8 8 8 8 8 8 8 8 8 8 8 8 8 8
12 11 11 11 11 11 11 11 11 10 10 10 10 10 10 10 9 9 9 9 8 8 8 8 8 8 7 7 7 7 7 7 7 7 7 7 7 7 7 7 8 8 8
11 11 11 11 10 10 10 10 10 10 10 10 10 9 9 9 9 8 8 8 8 8 7 7 7 7 7 7 7 7 7 7 7 7 7 7 7 7 7 7 7 7 7
10 10 10 10 10 10 10 10 9 9 9 9 9 9 8 8 8 8 7 7 7 7 7 7 7 6 6 6 6 6 6 6 6 6 6 6 6 6 6 6 7 7 7
10 10 10 10 9 9 9 9 9 8 8 8 7 7 7 7 7 7 7 7 6 6 6 6 6 6 6 6 6 6 6 6 5 5 5 5 5 6 6 6 6 6 6
9 9 9 9 9 9 9 8 8 8 7 7 7 6 5 5 5 6 6 6 6 6 6 6 6 5 5 5 5 5 5 5 5 5 5 5 5 5 5 6 6 6 6
9 9 9 8 8 8 8 8 7 7 7 6 6 6 5 5 4 4 5 5 5 5 5 5 5 5 5 5 5 5 5 4 4 4 4 4 4 5 5 5 5 5 5
9 8 8 8 8 7 7 7 7 6 6 6 5 5 5 5 4 3 3 4 5 5 5 5 5 5 4 4 4 4 4 4 4 4 4 4 4 4 4 4 5 5 5
8 8 8 7 7 7 7 6 6 6 6 5 5 5 4 4 4 3 3 3 4 4 4 5 4 4 4 4 4 4 4 4 4 3 3 3 4 4 4 4 4 4 4
8 8 7 7 7 7 6 6 6 6 5 5 5 4 4 4 3 3 3 3 3 3 4 4 4 4 3 4 4 3 3 3 3 3 3 3 3 3 3 3 4 4 4
7 7 7 6 6 6 6 6 5 5 5 4 4 4 4 3 3 3 3 2 2 3 3 3 4 3 3 3 3 3 3 3 3 3 3 3 3 3 3 3 3 4 4
7 6 6 6 6 6 5 5 5 5 4 4 4 4 3 3 3 3 3 2 2 2 2 3 3 3 3 3 3 3 3 3 3 3 3 3 3 3 3 3 3 4 4
6 6 6 5 5 5 5 5 4 4 4 4 3 3 3 3 3 3 2 2 2 2 1 2 2 2 2 2 2 2 2 3 3 3 3 3 3 3 3 3 3 3 3
6 5 5 5 5 5 4 4 4 4 3 3 3 3 3 3 3 2 2 2 2 2 1 2 2 2 2 2 2 2 2 2 2 2 2 2 2 3 3 3 3 3 3
5 5 5 5 4 4 4 3 3 3 3 3 3 3 3 2 2 2 2 2 2 1 1 1 2 2 2 2 2 2 2 2 2 2 2 2 2 2 2 2 3 3 3
5 5 4 4 4 4 3 3 3 3 3 2 2 2 2 2 2 2 2 2 1 1 1 1 1 1 1 1 1 2 2 2 2 2 2 2 2 2 2 2 2 3 3
4 4 4 3 3 3 3 3 2 2 2 2 2 2 2 2 1 1 1 1 1 1 1 1 1 1 1 1 1 1 1 2 2 2 2 2 2 2 2 2 2 2 3
4 3 3 3 3 3 2 2 2 2 1 2 2 1 1 1 1 1 1 1 1 1 1 1 0 0 1 1 1 1 1 1 1 2 2 2 1 1 2 2 2 2 2
3 3 3 2 2 2 2 2 2 1 1 1 1 1 1 1 1 1 1 1 0 0 0 0 0 0 0 0 0 1 1 0 1 1 1 1 1 1 1 2 2 2 2
3 2 2 2 2 2 1 1 1 1 1 1 1 1 1 1 1 1 1 0 0 0 0 -0 -0 -0 -0 -0 -0 0 0 0 0 1 1 1 1 1 1 1 2 2 2
2 2 2 1 1 1 1 1 1 1 0 0 0 0 -0 -0 0 0 0 0 0 0 -0 -0 -0 -0 -0 -0 -0 -0 0 0 0 0 0 0 1 1 1 1 1 1 1
1 1 1 1 1 1 1 1 0 0 0 0 -0 -0 -0 -1 -0 -1 -0 -0 -0 -0 -0 -0 -0 -0 -0 -0 -0 -0 -0 -0 0 0 0 -0 0 0 1 1 1 1 1
1 0 0 0 0 0 0 -0 -0 -0 -0 -0 -0 -0 -1 -1 -1 -1 -1 -1 -1 -1 -1 -0 -0 -0 0 0 0 -0 -0 -0 -0 -0 -0 -0 -0 -0 -0 0 0 0 0
Wind_Speed
3 4 4 5 5 5 5 4 4 4 4 4 4 3 3 4 4 5 6 8 9 9 10 10 11 12 12 12 12 12 12 12 13 13 13 13 14 14 14 15 15 16 17
5 4 3 3 4 4 4 3 3 2 2 2 2 3 3 3 3 4 5 7 8 9 10 11 12 13 14 14 14 14 14 14 14 14 14 15 15 15 15 16 17 17 18
6 4 2 2 2 3 4 4 4 3 2 3 3 3 3 3 3 4 5 5 6 8 10 12 13 14 15 15 16 15 15 14 15 15 15 15 15 16 16 17 17 18 19
5 4 2 1 3 4 3 2 2 2 3 3 3 4 3 3 3 4 4 5 5 7 9 12 14 15 16 16 16 16 15 15 15 16 16 16 16 16 17 17 17 18 19
5 4 2 2 3 3 2 2 2 2 3 4 4 4 3 3 3 4 4 5 6 7 8 11 14 15 16 17 17 17 17 16 16 17 18 18 18 18 18 18 19 19 19
4 4 3 2 3 2 2 2 2 2 2 4 5 5 4 4 3 3 4 4 6 8 9 10 11 12 16 17 18 18 19 18 17 18 19 19 19 19 20 20 20 20 21
4 4 2 2 2 1 1 2 2 3 3 3 3 4 4 4 3 3 3 3 5 7 8 9 9 10 11 16 18 19 20 20 19 19 19 20 20 20 21 21 21 21 22
3 2 2 1 1 1 2 2 2 2 3 3 1 3 4 4 3 4 4 4 5 6 6 9 9 10 11 11 14 18 19 21 20 20 20 20 21 21 22 22 22 22 23
2 2 1 1 1 0 1 2 1 1 2 3 1 0 1 4 6 4 4 5 5 5 6 7 8 9 11 11 12 15 18 21 21 21 21 21 22 22 22 22 23 23 23
1 1 1 1 0 1 1 2 2 1 1 3 2 1 3 3 3 6 5 4 6 7 7 8 8 9 11 11 13 16 18 20 21 21 21 22 22 23 23 23 23 23 23
1 0 0 0 1 1 2 2 2 2 2 3 3 3 3 3 3 4 8 8 6 6 6 7 7 7 10 10 11 14 17 20 20 20 21 22 22 23 23 23 23 23 23
1 1 1 1 1 1 2 3 3 3 3 3 4 3 3 3 4 4 7 9 9 8 7 6 6 7 8 9 12 16 18 19 20 20 21 21 22 23 23 23 24 24 24
2 2 2 2 2 2 3 3 3 3 3 4 4 4 4 5 5 5 6 8 9 8 6 5 5 6 8 9 11 17 18 19 20 20 21 21 22 22 22 23 24 24 24
2 2 2 2 2 3 3 3 3 4 4 4 6 5 5 5 5 5 5 6 9 8 6 7 4 5 7 9 13 17 14 19 19 20 20 20 20 20 20 21 22 22 21
2 2 2 2 3 3 3 3 3 4 4 4 5 6 6 6 5 5 5 5 6 9 10 7 4 5 7 9 14 13 13 17 19 20 19 19 19 19 18 19 20 21 20
2 2 2 2 3 3 3 3 4 4 5 5 4 5 6 6 5 5 5 5 6 7 10 7 6 7 8 11 15 13 13 18 18 18 19 19 19 18 18 19 20 20 19
2 3 3 3 3 4 4 3 4 5 5 6 6 6 7 7 6 5 5 5 6 6 10 10 7 7 7 9 11 11 12 11 12 17 18 18 17 17 17 17 17 17 16
3 3 3 3 4 4 4 4 5 6 6 7 7 7 8 7 7 6 5 6 6 6 8 11 9 7 8 9 9 10 10 10 10 15 16 16 16 15 16 17 16 16 15
3 3 3 4 4 5 5 5 6 6 6 7 7 8 8 8 8 7 7 7 6 7 6 8 10 8 7 8 8 9 9 7 9 12 13 14 14 15 15 16 16 14 14
3 3 4 4 5 5 5 6 6 6 7 7 7 8 8 8 9 9 7 7 7 7 7 7 8 8 7 7 6 7 9 6 7 8 10 11 13 14 14 15 15 14 12
3 3 4 4 4 5 5 6 6 6 7 7 7 7 8 10 12 10 8 7 6 6 7 7 7 7 8 7 7 6 8 8 7 4 6 7 7 7 9 12 12 12 11
3 3 4 4 5 5 9 10 7 6 6 7 8 8 8 9 11 13 14 13 10 8 7 7 7 8 9 8 7 7 7 7 6 3 4 7 5 6 7 7 10 10 10
3 4 4 5 6 7 11 11 10 6 6 6 7 7 8 9 11 8 11 12 11 12 11 8 8 9 9 8 8 8 7 7 7 5 5 6 5 5 6 8 10 9 9
3 4 4 5 6 8 11 12 12 6 6 6 7 7 8 9 9 9 8 8 7 7 8 7 7 9 8 8 7 7 7 6 5 4 2 4 5 5 6 6 8 9 9
3 4 4 5 6 8 11 12 11 5 5 6 6 7 7 8 12 12 8 7 7 7 8 9 10 11 12 12 9 5 5 4 5 5 2 2 3 4 4 3 6 9 10
4 5 5 5 6 7 10 12 11 4 5 6 5 6 9 9 12 11 6 6 7 7 7 7 8 9 8 8 8 4 4 4 4 4 2 2 3 3 3 3 3 5 6
Wind_Direction
85 73 64 58 49 45 42 32 27 23 16 9 4 360 344 339 337 341 335 328 329 330 330 328 325 321 319 315 312 308 304 301 298 298 296 295 294 291 289 288 287 286 282
101 85 67 55 43 39 36 34 26 17 359 357 338 336 325 328 331 331 332 328 327 330 330 328 325 322 318 315 311 309 307 303 302 300 298 295 292 292 290 288 287 286 283
106 95 72 46 28 31 35 31 21 17 353 342 324 313 312 314 323 317 320 323 324 324 325 325 322 320 317 314 312 309 307 307 305 303 300 298 294 290 287 287 287 286 284
109 96 74 41 29 36 33 13 2 355 340 329 314 303 304 304 301 306 312 317 319 317 317 318 318 317 315 314 311 310 305 304 304 303 300 297 296 295 292 291 289 288 287
108 101 83 47 43 41 20 355 358 343 328 324 308 301 302 297 292 300 303 310 309 308 311 314 316 316 315 313 311 311 306 302 301 300 299 298 296 293 292 291 288 288 287
104 97 80 48 47 37 12 357 341 336 317 312 312 311 302 293 290 285 288 308 314 309 312 313 311 311 312 312 312 310 308 301 299 298 297 296 295 294 291 289 289 287 285
98 92 68 43 39 33 356 348 340 337 334 329 334 325 313 297 292 284 286 294 305 312 310 307 305 305 306 307 308 307 307 303 300 298 297 295 293 293 293 289 288 288 286
91 90 78 51 30 21 1 351 351 338 333 354 352 336 330 321 300 293 290 286 291 305 305 308 304 303 303 302 301 304 305 302 298 297 296 294 293 293 292 291 288 286 286
91 96 91 68 20 26 315 313 311 325 317 325 347 164 315 292 307 285 275 281 289 294 295 302 300 300 301 301 299 300 303 301 298 297 297 296 294 293 292 291 290 287 286
87 83 76 56 352 334 298 295 306 287 280 303 312 268 239 251 284 301 298 283 287 288 285 295 296 296 296 297 297 301 305 303 299 299 298 296 294 293 293 292 291 290 288
11 16 33 25 316 307 295 299 302 292 274 268 274 282 287 280 255 269 294 304 301 281 280 278 282 289 296 295 295 297 304 306 302 300 299 296 295 294 293 293 293 292 290
310 316 327 322 307 303 295 288 283 283 278 275 271 263 264 270 273 269 280 295 299 295 288 277 273 280 291 295 296 302 304 304 302 301 300 298 295 293 292 293 294 292 289
288 280 310 300 297 296 295 295 290 284 277 278 274 269 264 261 264 269 279 288 293 295 289 278 263 275 293 297 296 299 300 302 301 301 300 298 296 293 292 292 293 291 288
244 253 276 288 294 299 305 298 293 285 287 279 284 279 276 273 266 263 267 285 299 296 290 282 278 269 285 294 296 297 297 301 302 304 303 301 300 298 294 294 294 293 291
250 260 273 281 289 294 295 297 293 291 292 281 279 282 281 279 274 268 261 260 276 294 295 289 290 283 294 296 297 297 295 298 302 303 305 305 303 301 300 301 299 296 295
249 253 268 278 288 294 294 294 292 294 298 292 285 288 289 285 284 276 267 266 262 270 284 288 289 294 299 302 303 302 296 300 301 302 305 306 306 303 304 304 303 300 295
246 250 260 272 281 286 289 290 290 292 294 298 297 293 291 292 287 283 278 273 271 269 281 291 288 295 294 297 303 302 296 293 296 300 304 305 306 308 309 310 311 309 307
247 252 262 272 279 286 286 283 288 292 290 293 293 291 290 295 292 286 279 275 275 270 274 290 297 299 295 296 296 299 303 302 297 301 307 308 309 312 313 314 315 314 312
259 266 268 271 278 282 283 282 280 284 283 284 286 287 289 292 292 290 282 280 280 280 272 282 292 294 295 298 302 302 300 298 304 306 311 316 315 317 317 319 321 318 314
260 266 271 271 277 282 282 280 282 284 285 285 284 283 284 283 282 285 284 279 282 284 281 281 288 294 296 299 302 305 310 312 311 311 314 315 318 321 321 324 327 326 323
280 273 278 283 284 283 278 284 285 287 289 294 293 289 288 290 291 289 290 287 284 283 287 289 292 298 302 309 307 301 304 312 309 305 318 319 319 320 319 325 330 333 332
296 293 285 283 286 289 296 299 301 289 291 294 296 299 300 295 299 300 296 295 293 287 287 288 292 296 299 301 302 303 304 312 309 319 323 316 324 321 323 325 334 338 338
297 297 292 288 285 290 301 303 304 299 285 282 286 294 300 303 307 297 295 296 293 292 287 284 285 287 292 294 297 298 299 300 294 306 321 308 322 320 324 331 343 352 355
287 287 291 292 292 297 307 308 306 298 283 281 283 285 288 295 298 300 298 295 292 292 291 286 277 282 287 290 285 283 283 291 293 300 312 299 314 316 323 330 346 0 8
294 289 288 291 296 302 310 311 311 292 288 287 287 288 291 288 301 307 305 298 299 299 303 298 297 299 301 303 303 303 304 305 306 308 317 296 305 324 331 344 359 13 16
292 293 293 292 291 297 309 315 313 291 290 293 296 294 297 302 309 311 305 299 299 303 312 316 317 319 315 313 315 300 281 283 295 300 313 324 309 334 337 344 356 1 6
Height
1527 1527 1527 1527 1526 1526 1525 1524 1524 1523 1522 1521 1521 1520 1519 1517 1516 1515 1514 1512 1511 1510 1508 1506 1505 1503 1502 1501 1499 1498 1496 1495 1493 1492 1490 1489 1488 1487 1486 1485 1484 1484 1483
1526 1526 1526 1526 1525 1525 1524 1523 1522 1521 1520 1519 1518 1517 1516 1515 1514 1512 1511 1510 1508 1506 1505 1503 1501 1500 1498 1497 1495 1494 1492 1490 1489 1487 1486 1484 1483 1482 1480 1479 1479 1478 1477
1525 1525 1525 1524 1524 1523 1523 1522 1521 1520 1518 1517 1515 1514 1513 1512 1511 1509 1508 1506 1505 1503 1501 1499 1498 1496 1494 1492 1490 1489 1487 1485 1484 1482 1481 1479 1478 1477 1475 1474 1473 1472 1471
1524 1524 1523 1523 1522 1522 1521 1520 1518 1517 1516 1514 1512 1511 1510 1509 1507 1506 1505 1503 1501 1499 1498 1495 1493 1491 1489 1487 1486 1484 1482 1480 1479 1477 1476 1474 1473 1471 1470 1468 1467 1466 1465
1523 1522 1522 1521 1521 1520 1519 1518 1516 1515 1513 1511 1509 1508 1507 1505 1504 1503 1501 1500 1498 1496 1493 1491 1489 1487 1485 1483 1481 1479 1477 1475 1473 1472 1470 1469 1467 1465 1464 1462 1461 1460 1459
1521 1520 1520 1519 1519 1518 1517 1515 1514 1512 1510 1508 1506 1504 1503 1501 1500 1499 1498 1496 1494 1492 1489 1487 1485 1483 1480 1478 1476 1473 1471 1469 1467 1466 1464 1462 1461 1459 1458 1456 1455 1453 1452
1519 1518 1518 1517 1517 1515 1514 1513 1511 1509 1507 1505 1503 1500 1498 1497 1496 1495 1493 1491 1490 1488 1485 1483 1481 1478 1475 1473 1471 1468 1465 1463 1461 1459 1457 1456 1454 1453 1451 1449 1448 1446 1445
1517 1516 1516 1515 1514 1513 1512 1510 1509 1506 1505 1503 1501 1497 1494 1492 1491 1490 1489 1487 1485 1483 1481 1479 1476 1473 1471 1468 1465 1462 1460 1457 1455 1453 1451 1450 1448 1446 1444 1443 1441 1439 1438
1515 1514 1514 1513 1512 1510 1509 1508 1506 1504 1502 1501 1500 1499 1495 1490 1487 1484 1484 1482 1480 1478 1476 1474 1471 1468 1466 1463 1460 1456 1454 1452 1449 1447 1445 1443 1441 1439 1437 1435 1434 1432 1430
1513 1512 1511 1510 1509 1508 1507 1505 1504 1502 1500 1498 1497 1496 1495 1491 1488 1481 1478 1477 1476 1474 1471 1469 1466 1463 1460 1457 1454 1451 1448 1446 1443 1440 1438 1436 1434 1432 1430 1428 1426 1424 1423
1510 1509 1508 1507 1506 1505 1504 1503 1501 1499 1498 1496 1494 1492 1490 1488 1486 1482 1474 1471 1470 1468 1466 1464 1461 1458 1455 1452 1449 1446 1443 1440 1437 1434 1431 1429 1427 1425 1422 1421 1419 1417 1415
1506 1506 1505 1504 1503 1502 1501 1499 1498 1496 1494 1492 1490 1488 1486 1484 1482 1479 1473 1467 1464 1462 1460 1458 1456 1453 1450 1447 1444 1441 1438 1434 1431 1428 1425 1422 1420 1417 1415 1413 1411 1409 1407
1503 1502 1502 1501 1500 1498 1497 1496 1494 1492 1491 1489 1487 1484 1482 1480 1478 1475 1471 1465 1460 1456 1454 1452 1451 1448 1445 1442 1439 1436 1433 1429 1426 1422 1419 1416 1413 1410 1408 1406 1404 1402 1400
1500 1499 1498 1497 1496 1495 1493 1492 1490 1488 1486 1484 1482 1480 1478 1476 1473 1471 1468 1464 1457 1451 1449 1447 1445 1443 1441 1437 1434 1431 1427 1424 1420 1417 1413 1410 1407 1404 1402 1400 1398 1395 1392
1497 1496 1495 1494 1492 1491 1490 1488 1486 1484 1482 1480 1478 1475 1473 1471 1468 1466 1464 1461 1458 1450 1443 1442 1440 1438 1436 1433 1429 1426 1422 1419 1415 1412 1409 1405 1402 1399 1396 1394 1391 1389 1386
1493 1492 1491 1490 1488 1487 1485 1484 1482 1480 1478 1475 1473 1471 1468 1466 1463 1461 1459 1457 1454 1450 1442 1438 1437 1434 1431 1428 1425 1422 1418 1414 1411 1408 1404 1400 1397 1394 1391 1388 1385 1382 1380
1489 1488 1487 1486 1484 1483 1481 1479 1477 1475 1473 1471 1468 1466 1463 1461 1458 1456 1454 1451 1449 1446 1440 1434 1433 1430 1427 1423 1419 1416 1412 1409 1406 1403 1399 1396 1393 1390 1387 1383 1380 1377 1374
1486 1484 1483 1481 1480 1478 1476 1474 1472 1470 1468 1466 1464 1461 1459 1456 1454 1451 1449 1446 1444 1441 1437 1431 1428 1425 1422 1419 1415 1412 1408 1405 1402 1399 1395 1392 1389 1386 1382 1379 1375 1372 1368
1481 1480 1479 1477 1475 1474 1472 1470 1468 1466 1464 1462 1459 1457 1454 1452 1448 1446 1444 1441 1439 1437 1434 1429 1424 1421 1418 1415 1411 1407 1404 1400 1397 1394 1391 1388 1385 1382 1378 1375 1371 1367 1364
1477 1476 1474 1473 1471 1469 1467 1465 1463 1461 1459 1457 1455 1453 1450 1447 1444 1442 1439 1437 1434 1432 1429 1425 1421 1417 1414 1411 1408 1403 1399 1396 1393 1391 1388 1385 1382 1378 1375 1371 1367 1364 1361
1473 1472 1470 1468 1467 1465 1463 1461 1459 1457 1455 1453 1450 1448 1446 1443 1440 1438 1435 1432 1430 1427 1424 1421 1417 1413 1410 1407 1404 1400 1397 1393 1390 1387 1384 1381 1379 1375 1372 1368 1365 1362 1359
1469 1468 1466 1464 1463 1461 1459 1457 1456 1453 1451 1448 1446 1443 1441 1438 1435 1433 1430 1428 1426 1423 1420 1417 1414 1410 1407 1404 1401 1398 1394 1391 1386 1385 1382 1378 1376 1372 1369 1366 1363 1360 1357
1465 1464 1462 1460 1458 1457 1455 1453 1451 1449 1447 1444 1441 1439 1436 1433 1431 1428 1425 1423 1421 1419 1417 1414 1410 1407 1404 1401 1398 1394 1392 1389 1385 1383 1380 1376 1373 1370 1368 1365 1362 1359 1357
1461 1460 1458 1456 1455 1453 1451 1449 1447 1445 1443 1440 1438 1435 1432 1429 1426 1424 1421 1418 1416 1414 1412 1410 1407 1404 1401 1398 1395 1392 1389 1386 1383 1381 1379 1374 1371 1368 1366 1364 1361 1359 1357
1457 1456 1454 1452 1450 1449 1447 1445 1443 1440 1438 1436 1433 1431 1428 1425 1423 1420 1417 1414 1411 1409 1408 1406 1403 1400 1397 1394 1391 1389 1386 1383 1379 1377 1376 1373 1370 1367 1365 1363 1361 1359 1357
1453 1452 1450 1449 1447 1445 1443 1441 1439 1436 1434 1431 1429 1426 1424 1422 1419 1416 1414 1410 1407 1405 1403 1401 1398 1396 1393 1390 1388 1386 1383 1381 1378 1375 1374 1372 1370 1368 1365 1363 1361 1359 1358